Starlink 4716

operational
NORAD ID: 53706 Int'l Des: 2022-107 Owner: SPXS Country: US Constellation: starlink
LEOCIRCULAR

Starlink 4716について

説明を読み込み中...

リアルタイム位置

3D地球を読み込み中...

次回通過

高度履歴

Altitude vs Time

uPlot chart will show altitude changes over time

軌道要素

1 53706U 22107G 25303.86344671 .00001003 00000-0 81067-4 0 9995
2 53706 53.2151 106.9919 0001333 86.0119 274.1026 15.08843672175256
Epoch: Oct 30, 2025 • Age: 24 hours

現在のステータス

高度 558.4 km
速度 7.58 km/s
衛星直下点 -51.30°S, 50.6°E
打ち上げ日 Sep 5, 2022
運用期間 3.1 years
タイプ internet

技術仕様

分類 Payload
質量 305.00 kg
乾燥質量 290.00 kg
総質量 305.00 kg
長さ 0.20 m
直径 2.80 m
スパン 9.00 m
形状 Box + pan
製造者 SPXS
バスタイプ Starlink
フェーズステータス In Orbit
所有者/国 SPXS/US

大規模コンステレーション

Loading constellations...